TRA893 LOWW-GMMN

Flight info

Callsign TRA893
Flight time 3h 41m
Altitude 36000
Route OSPEN DCT NIPEL DCT TIBRO/N0455F350 DCT TORTU UN851 RAPUR DCT BALEN/N0459F370 UT250 RIXOT T250 CDP M603 ALT N851 MGA M985 PIMOS N869 GALTO UB11 TUSOR
Aircraft A21N/M-SDE3FGHIRWY/LB1

Departure

Time 2026-05-07 18:14
Airport Vienna International Airport (LOWW)

Arrival

Time 2026-05-07 21:56
Airport Mohammed V International Airport (GMMN)
Time Latitude Longitude Altitude Speed Heading
2026-05-07 17:55 48.11973 16.55842 608 ft 0 kts 298°
2026-05-07 18:04 48.11972 16.55845 608 ft 2 kts 299°
2026-05-07 18:04 48.11963 16.55864 608 ft 2 kts 306°
2026-05-07 18:04 48.11955 16.55883 608 ft 2 kts 303°
2026-05-07 18:05 48.11947 16.55901 608 ft 2 kts 304°
2026-05-07 18:05 48.11940 16.55918 608 ft 0 kts 303°
2026-05-07 18:05 48.11937 16.55930 608 ft 1 kts 237°
2026-05-07 18:05 48.11944 16.55937 608 ft 1 kts 202°
2026-05-07 18:06 48.11946 16.55939 608 ft 0 kts 205°
2026-05-07 18:08 48.11943 16.55937 608 ft 0 kts 205°
2026-05-07 18:09 48.11934 16.55930 608 ft 2 kts 205°
2026-05-07 18:09 48.11913 16.55916 608 ft 4 kts 206°
2026-05-07 18:09 48.11868 16.55881 608 ft 8 kts 207°
2026-05-07 18:09 48.11794 16.55825 608 ft 12 kts 206°
2026-05-07 18:10 48.11695 16.55804 609 ft 13 kts 137°
2026-05-07 18:10 48.11647 16.55933 608 ft 13 kts 117°
2026-05-07 18:10 48.11605 16.56059 608 ft 13 kts 117°
2026-05-07 18:10 48.11563 16.56185 609 ft 13 kts 114°
2026-05-07 18:11 48.11523 16.56314 608 ft 14 kts 117°
2026-05-07 18:11 48.11488 16.56419 608 ft 16 kts 116°
2026-05-07 18:11 48.11391 16.56716 609 ft 25 kts 117°
2026-05-07 18:11 48.11295 16.57013 609 ft 28 kts 116°
2026-05-07 18:12 48.11200 16.57304 608 ft 26 kts 118°
2026-05-07 18:12 48.11117 16.57560 608 ft 20 kts 116°
2026-05-07 18:12 48.11023 16.57631 609 ft 15 kts 199°
2026-05-07 18:12 48.10949 16.57536 608 ft 13 kts 251°
2026-05-07 18:13 48.10952 16.57412 608 ft 7 kts 293°
2026-05-07 18:13 48.10954 16.57405 609 ft 0 kts 293°
2026-05-07 18:13 48.10986 16.57302 609 ft 40 kts 295°
2026-05-07 18:13 48.11223 16.56573 609 ft 110 kts 296°
2026-05-07 18:14 48.11658 16.55244 609 ft 166 kts 293°
2026-05-07 18:14 48.12248 16.53438 855 ft 193 kts 293°
2026-05-07 18:14 48.12821 16.51591 1523 ft 190 kts 283°
2026-05-07 18:14 48.12798 16.49594 2249 ft 187 kts 246°
2026-05-07 18:15 48.11892 16.48297 2882 ft 186 kts 198°
2026-05-07 18:15 48.10533 16.48079 3442 ft 191 kts 184°
2026-05-07 18:15 48.09038 16.47798 3888 ft 204 kts 194°
2026-05-07 18:15 48.07500 16.46863 4273 ft 221 kts 213°
2026-05-07 18:16 48.06065 16.45209 4603 ft 243 kts 223°
2026-05-07 18:16 48.04682 16.43357 5160 ft 254 kts 226°
2026-05-07 18:16 48.03368 16.41290 5880 ft 258 kts 231°
2026-05-07 18:16 48.02063 16.39107 6602 ft 263 kts 232°
2026-05-07 18:17 48.00742 16.36887 7162 ft 274 kts 231°
2026-05-07 18:17 47.99398 16.34644 7711 ft 284 kts 230°
2026-05-07 18:17 47.97911 16.32185 8502 ft 287 kts 229°
2026-05-07 18:17 47.96442 16.29774 9234 ft 292 kts 229°
2026-05-07 18:18 47.94992 16.27406 9931 ft 296 kts 229°
2026-05-07 18:18 47.93448 16.24891 10547 ft 304 kts 229°
2026-05-07 18:18 47.91959 16.22467 10865 ft 320 kts 229°
2026-05-07 18:18 47.90398 16.19924 11171 ft 336 kts 229°
2026-05-07 18:19 47.88608 16.17011 11489 ft 353 kts 229°
2026-05-07 18:19 47.86690 16.13902 11814 ft 369 kts 229°
2026-05-07 18:19 47.84676 16.10638 12120 ft 385 kts 229°
2026-05-07 18:19 47.82564 16.07210 12423 ft 400 kts 230°
2026-05-07 18:20 47.80582 16.03872 12896 ft 407 kts 231°
2026-05-07 18:20 47.78622 16.00532 13516 ft 409 kts 231°
2026-05-07 18:20 47.76602 15.97088 14171 ft 411 kts 231°
2026-05-07 18:20 47.74675 15.93813 14750 ft 413 kts 230°
2026-05-07 18:21 47.72747 15.90545 15319 ft 415 kts 230°
2026-05-07 18:21 47.70748 15.87167 15868 ft 417 kts 230°
2026-05-07 18:21 47.68721 15.83751 16388 ft 420 kts 230°
2026-05-07 18:21 47.66730 15.80402 16939 ft 421 kts 230°
2026-05-07 18:22 47.64670 15.76939 17458 ft 424 kts 230°
2026-05-07 18:22 47.63334 15.74698 17784 ft 426 kts 229°
2026-05-07 18:22 47.60603 15.70118 18418 ft 429 kts 229°
2026-05-07 18:22 47.58509 15.66612 18890 ft 431 kts 229°
2026-05-07 18:23 47.56419 15.63119 19355 ft 434 kts 229°
2026-05-07 18:23 47.54294 15.59576 19816 ft 436 kts 229°
2026-05-07 18:23 47.52228 15.56134 20283 ft 437 kts 229°
2026-05-07 18:23 47.50017 15.52452 20722 ft 440 kts 229°
2026-05-07 18:24 47.47899 15.48933 21142 ft 442 kts 229°
2026-05-07 18:24 47.45775 15.45410 21529 ft 444 kts 229°
2026-05-07 18:24 47.43610 15.41824 21910 ft 447 kts 229°
2026-05-07 18:24 47.41459 15.38270 22277 ft 450 kts 229°
2026-05-07 18:25 47.39298 15.34695 22619 ft 452 kts 228°
2026-05-07 18:25 47.37121 15.31099 22980 ft 454 kts 229°
2026-05-07 18:25 47.34955 15.27526 23329 ft 456 kts 229°
2026-05-07 18:25 47.32822 15.24015 23768 ft 456 kts 229°
2026-05-07 18:26 47.30674 15.20485 24234 ft 454 kts 229°
2026-05-07 18:26 47.28544 15.16989 24695 ft 453 kts 229°
2026-05-07 18:26 47.26458 15.13562 25099 ft 452 kts 229°
2026-05-07 18:26 47.24359 15.10121 25524 ft 451 kts 229°
2026-05-07 18:27 47.22268 15.06694 25969 ft 448 kts 229°
2026-05-07 18:27 47.20199 15.03318 26349 ft 447 kts 229°
2026-05-07 18:27 47.18138 14.99957 26724 ft 446 kts 229°
2026-05-07 18:27 47.16738 14.97673 26993 ft 444 kts 229°
2026-05-07 18:28 47.14004 14.93219 27570 ft 440 kts 229°
2026-05-07 18:28 47.11943 14.89873 27983 ft 437 kts 230°
2026-05-07 18:28 47.09890 14.86542 28389 ft 434 kts 230°
2026-05-07 18:28 47.07858 14.83247 28769 ft 432 kts 230°
2026-05-07 18:29 47.05854 14.80002 29154 ft 429 kts 230°
2026-05-07 18:29 47.03860 14.76773 29488 ft 427 kts 230°
2026-05-07 18:29 47.01861 14.73542 29822 ft 425 kts 230°
2026-05-07 18:29 46.99873 14.70334 30152 ft 423 kts 230°
2026-05-07 18:30 46.97894 14.67144 30457 ft 422 kts 230°
2026-05-07 18:30 46.95904 14.63936 30723 ft 421 kts 230°
2026-05-07 18:30 46.93954 14.60799 30980 ft 420 kts 230°
2026-05-07 18:30 46.91990 14.57638 31226 ft 419 kts 230°
2026-05-07 18:31 46.90013 14.54467 31462 ft 418 kts 230°
2026-05-07 18:31 46.88077 14.51367 31745 ft 416 kts 231°
2026-05-07 18:31 46.86121 14.48236 31993 ft 415 kts 231°
2026-05-07 18:31 46.84191 14.45147 32208 ft 414 kts 231°
2026-05-07 18:32 46.82238 14.42022 32413 ft 414 kts 231°
2026-05-07 18:32 46.80316 14.38956 32636 ft 413 kts 231°
2026-05-07 18:32 46.78384 14.35880 32877 ft 411 kts 231°
2026-05-07 18:32 46.76448 14.32802 33112 ft 410 kts 230°
2026-05-07 18:33 46.74506 14.29716 33304 ft 410 kts 230°
2026-05-07 18:33 46.72597 14.26680 33469 ft 409 kts 230°
2026-05-07 18:33 46.70669 14.23619 33611 ft 409 kts 230°
2026-05-07 18:33 46.68738 14.20561 33745 ft 410 kts 230°
2026-05-07 18:34 46.66820 14.17524 33922 ft 408 kts 230°
2026-05-07 18:34 46.64912 14.14509 34123 ft 407 kts 230°
2026-05-07 18:34 46.62999 14.11486 34287 ft 406 kts 230°
2026-05-07 18:34 46.61063 14.08432 34388 ft 407 kts 230°
2026-05-07 18:35 46.59158 14.05430 34499 ft 408 kts 231°
2026-05-07 18:35 46.55273 13.99318 34703 ft 409 kts 230°
2026-05-07 18:35 46.53330 13.96265 34826 ft 409 kts 230°
2026-05-07 18:36 46.51412 13.93257 34913 ft 410 kts 231°
2026-05-07 18:36 46.49469 13.90210 35029 ft 410 kts 230°
2026-05-07 18:36 46.47552 13.87209 35144 ft 410 kts 230°
2026-05-07 18:36 46.45604 13.84166 35249 ft 411 kts 230°
2026-05-07 18:37 46.43680 13.81163 35306 ft 412 kts 231°
2026-05-07 18:37 46.39782 13.75084 35495 ft 411 kts 230°
2026-05-07 18:38 46.35897 13.69042 35661 ft 411 kts 230°
2026-05-07 18:38 46.32000 13.62993 35777 ft 412 kts 231°
2026-05-07 18:39 46.28097 13.56950 35886 ft 412 kts 230°
2026-05-07 18:39 46.24203 13.50933 35941 ft 413 kts 230°
2026-05-07 18:40 46.20375 13.44746 35748 ft 412 kts 233°
2026-05-07 18:40 46.16691 13.38376 35784 ft 414 kts 233°
2026-05-07 18:41 46.12994 13.32013 35853 ft 414 kts 232°
2026-05-07 18:41 46.09300 13.25665 35982 ft 414 kts 233°
2026-05-07 18:42 46.05600 13.19316 36024 ft 414 kts 233°
2026-05-07 18:42 46.01875 13.12939 36013 ft 414 kts 233°
2026-05-07 18:43 45.98174 13.06619 36019 ft 413 kts 233°
2026-05-07 18:43 45.94476 13.00317 36019 ft 412 kts 233°
2026-05-07 18:44 45.90785 12.94041 36014 ft 412 kts 233°
2026-05-07 18:44 45.87080 12.87755 36018 ft 411 kts 233°
2026-05-07 18:45 45.83387 12.81504 36008 ft 412 kts 233°
2026-05-07 18:45 45.79702 12.75277 36013 ft 411 kts 233°
2026-05-07 18:46 45.76015 12.69064 36023 ft 411 kts 233°
2026-05-07 18:46 45.72308 12.62830 36018 ft 411 kts 233°
2026-05-07 18:47 45.68624 12.56652 36007 ft 410 kts 233°
2026-05-07 18:47 45.64928 12.50462 36018 ft 410 kts 233°
2026-05-07 18:48 45.61226 12.44278 36012 ft 410 kts 233°
2026-05-07 18:48 45.57527 12.38116 36019 ft 410 kts 233°
2026-05-07 18:49 45.53831 12.31973 36024 ft 409 kts 232°
2026-05-07 18:49 45.50129 12.25831 36010 ft 409 kts 232°
2026-05-07 18:50 45.46379 12.19621 36007 ft 408 kts 232°
2026-05-07 18:50 45.42695 12.13534 36018 ft 408 kts 232°
2026-05-07 18:51 45.39006 12.07453 36004 ft 407 kts 232°
2026-05-07 18:51 45.35330 12.01408 36015 ft 407 kts 232°
2026-05-07 18:52 45.31641 11.95352 36005 ft 407 kts 232°
2026-05-07 18:52 45.27942 11.89294 35998 ft 406 kts 232°
2026-05-07 18:53 45.24237 11.83241 36001 ft 406 kts 232°
2026-05-07 18:53 45.20541 11.77215 35986 ft 406 kts 232°
2026-05-07 18:54 45.16854 11.71215 35994 ft 406 kts 232°
2026-05-07 18:54 45.13163 11.65222 36000 ft 406 kts 232°
2026-05-07 18:55 45.09461 11.59225 35994 ft 405 kts 232°
2026-05-07 18:55 45.05757 11.53241 35976 ft 404 kts 232°
2026-05-07 18:56 45.02065 11.47283 35983 ft 405 kts 232°
2026-05-07 18:56 44.98369 11.41335 35984 ft 404 kts 232°
2026-05-07 18:57 44.94672 11.35397 35983 ft 403 kts 232°
2026-05-07 18:57 44.90993 11.29499 35975 ft 404 kts 232°
2026-05-07 18:58 44.87277 11.23555 35972 ft 403 kts 232°
2026-05-07 18:58 44.83576 11.17646 35982 ft 403 kts 232°
2026-05-07 18:59 44.79876 11.11753 35981 ft 403 kts 232°
2026-05-07 18:59 44.76178 11.05876 35983 ft 403 kts 232°
2026-05-07 19:00 44.72456 10.99973 35991 ft 403 kts 232°
2026-05-07 19:00 44.68754 10.94112 36003 ft 403 kts 232°
2026-05-07 19:01 44.65020 10.88214 36002 ft 403 kts 231°
2026-05-07 19:01 44.61324 10.82388 36006 ft 402 kts 231°
2026-05-07 19:02 44.57594 10.76522 36005 ft 402 kts 231°
2026-05-07 19:02 44.53878 10.70689 36005 ft 402 kts 231°
2026-05-07 19:03 44.50159 10.64863 36011 ft 402 kts 231°
2026-05-07 19:03 44.46457 10.59072 36019 ft 402 kts 231°
2026-05-07 19:04 44.42717 10.53242 36018 ft 402 kts 231°
2026-05-07 19:04 44.39017 10.47478 36028 ft 402 kts 231°
2026-05-07 19:05 44.35275 10.41667 36031 ft 401 kts 231°
2026-05-07 19:05 44.31569 10.35920 36029 ft 401 kts 231°
2026-05-07 19:06 44.27828 10.30134 36038 ft 401 kts 231°
2026-05-07 19:06 44.22245 10.21516 36039 ft 401 kts 230°
2026-05-07 19:07 44.18499 10.15750 36032 ft 401 kts 230°
2026-05-07 19:07 44.14738 10.09972 36019 ft 397 kts 230°
2026-05-07 19:08 44.10989 10.04223 36015 ft 400 kts 230°
2026-05-07 19:08 44.07254 9.98508 36009 ft 400 kts 230°
2026-05-07 19:09 44.03500 9.92779 36009 ft 400 kts 230°
2026-05-07 19:09 43.99762 9.87079 36006 ft 399 kts 230°
2026-05-07 19:10 43.96011 9.81378 36003 ft 399 kts 230°
2026-05-07 19:10 43.92279 9.75713 36004 ft 398 kts 230°
2026-05-07 19:11 43.88532 9.70036 36002 ft 398 kts 230°
2026-05-07 19:11 43.84793 9.64380 36003 ft 398 kts 230°
2026-05-07 19:12 43.81037 9.58716 36003 ft 398 kts 230°
2026-05-07 19:12 43.77304 9.53096 36003 ft 399 kts 230°
2026-05-07 19:13 43.73554 9.47465 36001 ft 398 kts 230°
2026-05-07 19:13 43.69799 9.41831 36001 ft 399 kts 230°
2026-05-07 19:14 43.66050 9.36224 35999 ft 399 kts 230°
2026-05-07 19:14 43.62313 9.30643 35997 ft 398 kts 229°
2026-05-07 19:15 43.58567 9.25055 35995 ft 398 kts 229°
2026-05-07 19:15 43.54801 9.19452 35996 ft 398 kts 229°
2026-05-07 19:16 43.51059 9.13899 35999 ft 397 kts 229°
2026-05-07 19:16 43.47290 9.08316 35999 ft 397 kts 229°
2026-05-07 19:17 43.43447 9.02870 35995 ft 399 kts 225°
2026-05-07 19:17 43.39175 8.98021 35994 ft 401 kts 219°
2026-05-07 19:18 43.34463 8.93861 35989 ft 405 kts 213°
2026-05-07 19:18 43.29368 8.90477 35988 ft 410 kts 207°
2026-05-07 19:19 43.24108 8.87450 35989 ft 409 kts 207°
2026-05-07 19:19 43.18845 8.84433 35990 ft 409 kts 207°
2026-05-07 19:20 43.13590 8.81432 35975 ft 409 kts 207°
2026-05-07 19:20 43.08325 8.78437 35967 ft 409 kts 207°
2026-05-07 19:21 43.03083 8.75462 35979 ft 409 kts 207°
2026-05-07 19:21 42.97813 8.72459 35973 ft 408 kts 208°
2026-05-07 19:22 42.92793 8.68859 35988 ft 405 kts 215°
2026-05-07 19:22 42.88207 8.64397 35989 ft 402 kts 222°
2026-05-07 19:23 42.84166 8.59226 35985 ft 401 kts 229°
2026-05-07 19:23 42.80512 8.53468 35988 ft 400 kts 231°
2026-05-07 19:24 42.76894 8.47685 35982 ft 401 kts 231°
2026-05-07 19:24 42.73294 8.41925 35986 ft 401 kts 231°
2026-05-07 19:25 42.69673 8.36143 35983 ft 401 kts 231°
2026-05-07 19:25 42.66069 8.30393 35979 ft 401 kts 230°
2026-05-07 19:26 42.62440 8.24612 35985 ft 402 kts 230°
2026-05-07 19:26 42.58806 8.18836 35981 ft 401 kts 230°
2026-05-07 19:27 42.55195 8.13106 35985 ft 402 kts 230°
2026-05-07 19:27 42.51548 8.07333 35982 ft 402 kts 230°
2026-05-07 19:28 42.47917 8.01595 35986 ft 403 kts 230°
2026-05-07 19:28 42.44279 7.95857 35982 ft 402 kts 230°
2026-05-07 19:29 42.40647 7.90141 35973 ft 403 kts 230°
2026-05-07 19:29 42.37001 7.84410 35977 ft 403 kts 230°
2026-05-07 19:30 42.33354 7.78693 35981 ft 402 kts 230°
2026-05-07 19:30 42.29697 7.72968 35986 ft 403 kts 229°
2026-05-07 19:31 42.26041 7.67257 35984 ft 403 kts 230°
2026-05-07 19:31 42.22370 7.61533 35983 ft 404 kts 230°
2026-05-07 19:32 42.18696 7.55817 35985 ft 404 kts 229°
2026-05-07 19:32 42.15025 7.50115 35984 ft 404 kts 229°
2026-05-07 19:33 42.11332 7.44390 35983 ft 405 kts 229°
2026-05-07 19:33 42.07644 7.38687 35985 ft 406 kts 230°
2026-05-07 19:34 42.03958 7.32996 35985 ft 406 kts 229°
2026-05-07 19:34 42.00253 7.27286 35983 ft 406 kts 229°
2026-05-07 19:35 41.96527 7.21552 35969 ft 406 kts 229°
2026-05-07 19:35 41.92950 7.16063 35972 ft 406 kts 229°
2026-05-07 19:36 41.89239 7.10376 35980 ft 406 kts 229°
2026-05-07 19:36 41.85546 7.04727 35979 ft 406 kts 229°
2026-05-07 19:37 41.81829 6.99056 35982 ft 406 kts 229°
2026-05-07 19:37 41.78101 6.93372 35977 ft 406 kts 229°
2026-05-07 19:38 41.74361 6.87686 35974 ft 406 kts 229°
2026-05-07 19:38 41.70629 6.82023 35976 ft 406 kts 229°
2026-05-07 19:39 41.66923 6.76405 35972 ft 406 kts 229°
2026-05-07 19:39 41.63170 6.70731 35967 ft 406 kts 229°
2026-05-07 19:40 41.59434 6.65092 35973 ft 406 kts 229°
2026-05-07 19:40 41.55704 6.59474 35970 ft 406 kts 228°
2026-05-07 19:41 41.51974 6.53867 35975 ft 406 kts 229°
2026-05-07 19:41 41.48237 6.48257 35963 ft 406 kts 228°
2026-05-07 19:42 41.44487 6.42642 35968 ft 406 kts 228°
2026-05-07 19:42 41.40730 6.37026 35970 ft 407 kts 228°
2026-05-07 19:43 41.36989 6.31443 35968 ft 406 kts 227°
2026-05-07 19:43 41.33217 6.25825 35968 ft 407 kts 227°
2026-05-07 19:44 41.29464 6.20244 35969 ft 406 kts 227°
2026-05-07 19:44 41.25715 6.14681 35963 ft 406 kts 227°
2026-05-07 19:45 41.21930 6.09078 35969 ft 406 kts 227°
2026-05-07 19:45 41.18184 6.03540 35964 ft 406 kts 227°
2026-05-07 19:46 41.14414 5.97975 35960 ft 406 kts 227°
2026-05-07 19:46 41.10650 5.92430 35964 ft 406 kts 227°
2026-05-07 19:47 41.06873 5.86877 35959 ft 407 kts 227°
2026-05-07 19:47 41.03076 5.81302 35976 ft 407 kts 227°
2026-05-07 19:48 40.99283 5.75748 35976 ft 407 kts 227°
2026-05-07 19:48 40.95524 5.70162 35976 ft 408 kts 229°
2026-05-07 19:49 40.92122 5.64219 35976 ft 408 kts 233°
2026-05-07 19:49 40.88844 5.58106 35980 ft 407 kts 233°
2026-05-07 19:50 40.85565 5.52007 35977 ft 408 kts 233°
2026-05-07 19:50 40.82290 5.45916 35983 ft 408 kts 233°
2026-05-07 19:51 40.79017 5.39839 35980 ft 408 kts 233°
2026-05-07 19:51 40.75733 5.33752 35976 ft 409 kts 233°
2026-05-07 19:52 40.72445 5.27670 35978 ft 409 kts 232°
2026-05-07 19:52 40.69137 5.21560 35972 ft 409 kts 233°
2026-05-07 19:53 40.65850 5.15504 35983 ft 410 kts 232°
2026-05-07 19:53 40.62535 5.09405 35985 ft 410 kts 233°
2026-05-07 19:54 40.59229 5.03336 35980 ft 410 kts 233°
2026-05-07 19:54 40.55896 4.97231 35981 ft 411 kts 233°
2026-05-07 19:55 40.52589 4.91179 35975 ft 410 kts 233°
2026-05-07 19:55 40.49246 4.85079 35979 ft 410 kts 233°
2026-05-07 19:56 40.45935 4.79049 35971 ft 410 kts 233°
2026-05-07 19:56 40.42584 4.72957 35976 ft 411 kts 233°
2026-05-07 19:57 40.39257 4.66917 35971 ft 411 kts 233°
2026-05-07 19:57 40.35920 4.60877 35973 ft 411 kts 233°
2026-05-07 19:58 40.32560 4.54809 35968 ft 411 kts 233°
2026-05-07 19:58 40.29201 4.48754 35972 ft 411 kts 233°
2026-05-07 19:59 40.25843 4.42708 35969 ft 411 kts 233°
2026-05-07 19:59 40.22497 4.36695 35968 ft 411 kts 233°
2026-05-07 20:00 40.19120 4.30640 35973 ft 412 kts 232°
2026-05-07 20:00 40.15762 4.24632 35967 ft 413 kts 232°
2026-05-07 20:01 40.12382 4.18595 35976 ft 413 kts 232°
2026-05-07 20:01 40.08986 4.12540 35971 ft 412 kts 232°
2026-05-07 20:02 40.05587 4.06489 35969 ft 412 kts 232°
2026-05-07 20:02 40.02204 4.00484 35965 ft 411 kts 233°
2026-05-07 20:03 39.98795 3.94437 35974 ft 412 kts 233°
2026-05-07 20:03 39.95393 3.88419 35977 ft 413 kts 233°
2026-05-07 20:04 39.91969 3.82373 35979 ft 414 kts 233°
2026-05-07 20:04 39.88515 3.76281 35979 ft 415 kts 233°
2026-05-07 20:05 39.85062 3.70207 35977 ft 415 kts 233°
2026-05-07 20:05 39.81630 3.64178 35978 ft 416 kts 233°
2026-05-07 20:06 39.78099 3.57987 35980 ft 416 kts 233°
2026-05-07 20:06 39.74568 3.51812 35979 ft 416 kts 233°
2026-05-07 20:07 39.71286 3.45337 35974 ft 417 kts 239°
2026-05-07 20:07 39.68469 3.38270 35969 ft 418 kts 245°
2026-05-07 20:08 39.66222 3.30905 35970 ft 418 kts 248°
2026-05-07 20:08 39.64098 3.23407 35963 ft 419 kts 248°
2026-05-07 20:09 39.62012 3.16048 35962 ft 419 kts 249°
2026-05-07 20:10 39.58836 3.04882 35964 ft 419 kts 249°
2026-05-07 20:10 39.56740 2.97536 35962 ft 419 kts 249°
2026-05-07 20:11 39.54659 2.90262 35965 ft 418 kts 249°
2026-05-07 20:11 39.52601 2.83099 35963 ft 418 kts 249°
2026-05-07 20:12 39.50555 2.76004 35968 ft 417 kts 249°
2026-05-07 20:12 39.48508 2.68920 35961 ft 417 kts 250°
2026-05-07 20:13 39.46457 2.61840 35957 ft 417 kts 250°
2026-05-07 20:13 39.44426 2.54839 35969 ft 417 kts 250°
2026-05-07 20:14 39.42375 2.47802 35953 ft 416 kts 250°
2026-05-07 20:14 39.40319 2.40758 35956 ft 416 kts 250°
2026-05-07 20:15 39.38270 2.33766 35955 ft 416 kts 250°
2026-05-07 20:15 39.36203 2.26722 35969 ft 416 kts 250°
2026-05-07 20:16 39.34140 2.19722 35945 ft 416 kts 250°
2026-05-07 20:16 39.32065 2.12686 35946 ft 416 kts 250°
2026-05-07 20:17 39.30000 2.05712 35943 ft 416 kts 250°
2026-05-07 20:17 39.27934 1.98743 35965 ft 416 kts 251°
2026-05-07 20:18 39.27422 1.97020 35968 ft 416 kts 251°
2026-05-07 20:18 39.25356 1.90073 35965 ft 415 kts 251°
2026-05-07 20:19 39.23280 1.83116 35963 ft 414 kts 251°
2026-05-07 20:19 39.21227 1.76250 35966 ft 414 kts 251°
2026-05-07 20:20 39.19146 1.69312 35974 ft 413 kts 251°
2026-05-07 20:20 39.17072 1.62413 35973 ft 413 kts 251°
2026-05-07 20:21 39.15008 1.55569 35963 ft 411 kts 252°
2026-05-07 20:21 39.12940 1.48720 35971 ft 411 kts 252°
2026-05-07 20:22 39.10854 1.41831 35970 ft 410 kts 252°
2026-05-07 20:22 39.08779 1.35018 35974 ft 410 kts 252°
2026-05-07 20:23 39.06702 1.28210 35973 ft 409 kts 252°
2026-05-07 20:23 39.04629 1.21414 35969 ft 407 kts 252°
2026-05-07 20:24 39.02565 1.14681 35962 ft 405 kts 252°
2026-05-07 20:24 39.00484 1.07901 35971 ft 406 kts 253°
2026-05-07 20:25 38.98414 1.01177 35976 ft 404 kts 253°
2026-05-07 20:25 38.96334 0.94434 35985 ft 403 kts 253°
2026-05-07 20:26 38.94247 0.87673 35983 ft 403 kts 253°
2026-05-07 20:26 38.92165 0.80956 35982 ft 403 kts 253°
2026-05-07 20:27 38.90093 0.74275 35984 ft 403 kts 253°
2026-05-07 20:27 38.88015 0.67606 35990 ft 402 kts 254°
2026-05-07 20:28 38.85933 0.60932 35985 ft 401 kts 254°
2026-05-07 20:28 38.83849 0.54299 35983 ft 401 kts 253°
2026-05-07 20:29 38.81418 0.47810 35979 ft 405 kts 248°
2026-05-07 20:29 38.78456 0.41555 35981 ft 408 kts 243°
2026-05-07 20:30 38.75322 0.35478 35980 ft 408 kts 244°
2026-05-07 20:30 38.72188 0.29404 35981 ft 408 kts 243°
2026-05-07 20:31 38.69036 0.23329 35983 ft 407 kts 243°
2026-05-07 20:31 38.65888 0.17266 35977 ft 407 kts 243°
2026-05-07 20:32 38.62740 0.11210 35976 ft 407 kts 243°
2026-05-07 20:32 38.59596 0.05182 35979 ft 407 kts 243°
2026-05-07 20:33 38.56456 -0.00827 35975 ft 405 kts 244°
2026-05-07 20:33 38.53287 -0.06881 35976 ft 406 kts 243°
2026-05-07 20:34 38.50116 -0.12932 35977 ft 406 kts 243°
2026-05-07 20:34 38.46943 -0.18972 35980 ft 406 kts 243°
2026-05-07 20:35 38.43771 -0.25000 35981 ft 404 kts 243°
2026-05-07 20:35 38.40572 -0.31068 35981 ft 404 kts 243°
2026-05-07 20:36 38.37434 -0.37005 35981 ft 404 kts 243°
2026-05-07 20:36 38.34293 -0.42946 35983 ft 404 kts 243°
2026-05-07 20:37 38.31148 -0.48876 35986 ft 404 kts 243°
2026-05-07 20:37 38.28043 -0.54878 35983 ft 400 kts 246°
2026-05-07 20:38 38.25323 -0.61256 35981 ft 396 kts 250°
2026-05-07 20:38 38.23025 -0.67589 35980 ft 395 kts 251°
2026-05-07 20:39 38.20735 -0.73910 35978 ft 397 kts 250°
2026-05-07 20:39 38.18441 -0.80241 35976 ft 396 kts 251°
2026-05-07 20:40 38.16144 -0.86576 35974 ft 396 kts 251°
2026-05-07 20:40 38.13830 -0.92944 35984 ft 397 kts 251°
2026-05-07 20:41 38.11538 -0.99243 35985 ft 395 kts 250°
2026-05-07 20:41 38.09225 -1.05586 35984 ft 395 kts 250°
2026-05-07 20:42 38.06934 -1.11851 35987 ft 395 kts 250°
2026-05-07 20:42 38.04620 -1.18168 35988 ft 395 kts 251°
2026-05-07 20:43 38.02312 -1.24464 35988 ft 395 kts 250°
2026-05-07 20:43 37.99998 -1.30752 35988 ft 396 kts 250°
2026-05-07 20:44 37.97668 -1.37075 35985 ft 396 kts 250°
2026-05-07 20:44 37.95333 -1.43401 35990 ft 396 kts 250°
2026-05-07 20:45 37.92978 -1.49767 35992 ft 396 kts 250°
2026-05-07 20:45 37.90638 -1.56072 35995 ft 395 kts 250°
2026-05-07 20:46 37.88269 -1.62440 35999 ft 397 kts 250°
2026-05-07 20:46 37.85904 -1.68779 36002 ft 397 kts 249°
2026-05-07 20:47 37.83526 -1.75146 36003 ft 397 kts 249°
2026-05-07 20:47 37.81143 -1.81510 36013 ft 398 kts 249°
2026-05-07 20:48 37.78750 -1.87886 36009 ft 397 kts 249°
2026-05-07 20:48 37.76354 -1.94262 36007 ft 398 kts 249°
2026-05-07 20:49 37.73981 -2.00563 35993 ft 398 kts 249°
2026-05-07 20:49 37.71612 -2.06842 35998 ft 399 kts 249°
2026-05-07 20:50 37.69208 -2.13196 35998 ft 399 kts 249°
2026-05-07 20:50 37.66810 -2.19524 35996 ft 398 kts 249°
2026-05-07 20:51 37.64412 -2.25844 35999 ft 398 kts 249°
2026-05-07 20:51 37.61986 -2.32215 35998 ft 399 kts 249°
2026-05-07 20:52 37.59559 -2.38583 35999 ft 399 kts 249°
2026-05-07 20:52 37.57128 -2.44947 36000 ft 400 kts 249°
2026-05-07 20:53 37.54723 -2.51230 36005 ft 400 kts 248°
2026-05-07 20:53 37.52306 -2.57545 36007 ft 400 kts 249°
2026-05-07 20:54 37.49902 -2.63796 36003 ft 399 kts 248°
2026-05-07 20:54 37.47487 -2.70069 36000 ft 400 kts 248°
2026-05-07 20:55 37.45056 -2.76379 36001 ft 401 kts 248°
2026-05-07 20:55 37.42635 -2.82651 36004 ft 400 kts 248°
2026-05-07 20:56 37.40196 -2.88941 36006 ft 401 kts 248°
2026-05-07 20:56 37.37758 -2.95219 36010 ft 401 kts 248°
2026-05-07 20:57 37.35321 -3.01491 36007 ft 400 kts 248°
2026-05-07 20:57 37.32891 -3.07734 36005 ft 400 kts 248°
2026-05-07 20:58 37.30436 -3.14020 36005 ft 401 kts 248°
2026-05-07 20:58 37.27988 -3.20287 36005 ft 400 kts 247°
2026-05-07 20:59 37.25553 -3.26494 36006 ft 400 kts 247°
2026-05-07 20:59 37.23098 -3.32747 36013 ft 400 kts 247°
2026-05-07 21:00 37.20636 -3.38988 36020 ft 400 kts 247°
2026-05-07 21:00 37.18179 -3.45218 36020 ft 400 kts 247°
2026-05-07 21:01 37.15709 -3.51467 36021 ft 399 kts 247°
2026-05-07 21:01 37.14478 -3.54580 36236 ft 400 kts 247°
2026-05-07 21:01 37.13250 -3.57679 36083 ft 398 kts 247°
2026-05-07 21:02 37.10804 -3.63855 36020 ft 398 kts 247°
2026-05-07 21:02 37.08333 -3.70061 36012 ft 399 kts 246°
2026-05-07 21:03 37.05864 -3.76251 36008 ft 399 kts 246°
2026-05-07 21:03 37.03398 -3.82431 36005 ft 398 kts 246°
2026-05-07 21:04 37.00922 -3.88622 36000 ft 398 kts 246°
2026-05-07 21:04 36.98462 -3.94755 35993 ft 398 kts 246°
2026-05-07 21:05 36.95976 -4.00957 35990 ft 398 kts 245°
2026-05-07 21:05 36.93510 -4.07087 35994 ft 398 kts 245°
2026-05-07 21:06 36.91015 -4.13276 35987 ft 398 kts 245°
2026-05-07 21:06 36.88533 -4.19428 35984 ft 398 kts 245°
2026-05-07 21:07 36.86030 -4.25613 35980 ft 398 kts 245°
2026-05-07 21:07 36.83120 -4.31579 35975 ft 402 kts 237°
2026-05-07 21:08 36.79461 -4.37016 35970 ft 407 kts 230°
2026-05-07 21:08 36.75156 -4.41720 35957 ft 410 kts 221°
2026-05-07 21:09 36.70155 -4.45873 35956 ft 413 kts 218°
2026-05-07 21:09 36.65272 -4.49765 35958 ft 412 kts 218°
2026-05-07 21:10 36.60369 -4.53658 35957 ft 411 kts 218°
2026-05-07 21:10 36.55387 -4.57606 35957 ft 411 kts 218°
2026-05-07 21:11 36.50529 -4.61444 35957 ft 412 kts 218°
2026-05-07 21:11 36.43291 -4.67159 35957 ft 410 kts 217°
2026-05-07 21:12 36.38459 -4.70966 35958 ft 410 kts 217°
2026-05-07 21:12 36.33590 -4.74796 35958 ft 410 kts 217°
2026-05-07 21:13 36.28695 -4.78646 35955 ft 411 kts 217°
2026-05-07 21:13 36.23804 -4.82482 35959 ft 411 kts 217°
2026-05-07 21:14 36.18982 -4.86258 35961 ft 410 kts 217°
2026-05-07 21:14 36.14087 -4.90091 35962 ft 411 kts 217°
2026-05-07 21:15 36.09287 -4.93888 35960 ft 410 kts 217°
2026-05-07 21:15 36.04477 -4.97695 35961 ft 410 kts 217°
2026-05-07 21:16 35.99652 -5.01508 35962 ft 411 kts 217°
2026-05-07 21:16 35.94868 -5.05281 35958 ft 411 kts 217°
2026-05-07 21:17 35.90054 -5.09075 35959 ft 409 kts 217°
2026-05-07 21:17 35.85225 -5.12872 35962 ft 409 kts 217°
2026-05-07 21:18 35.80344 -5.16620 35953 ft 410 kts 215°
2026-05-07 21:18 35.75339 -5.20324 35949 ft 410 kts 216°
2026-05-07 21:19 35.70382 -5.24003 35946 ft 410 kts 215°
2026-05-07 21:19 35.65476 -5.27644 35945 ft 410 kts 216°
2026-05-07 21:20 35.60567 -5.31313 35948 ft 410 kts 217°
2026-05-07 21:20 35.55819 -5.35398 35950 ft 408 kts 219°
2026-05-07 21:21 35.51131 -5.39549 35950 ft 407 kts 219°
2026-05-07 21:21 35.46482 -5.43669 35954 ft 408 kts 219°
2026-05-07 21:22 35.41838 -5.47781 35966 ft 407 kts 220°
2026-05-07 21:22 35.37238 -5.51851 35972 ft 407 kts 219°
2026-05-07 21:23 35.32734 -5.55829 35970 ft 407 kts 219°
2026-05-07 21:23 35.28285 -5.59753 35969 ft 406 kts 219°
2026-05-07 21:24 35.23727 -5.63768 35970 ft 405 kts 219°
2026-05-07 21:24 35.19245 -5.67711 35965 ft 406 kts 219°
2026-05-07 21:25 35.14687 -5.71716 35961 ft 405 kts 219°
2026-05-07 21:25 35.10123 -5.75720 35956 ft 405 kts 219°
2026-05-07 21:26 35.05544 -5.79735 35961 ft 404 kts 219°
2026-05-07 21:26 35.00994 -5.83718 35955 ft 404 kts 219°
2026-05-07 21:27 34.96413 -5.87722 35956 ft 404 kts 219°
2026-05-07 21:27 34.91866 -5.91690 35962 ft 405 kts 219°
2026-05-07 21:28 34.87435 -5.95916 35961 ft 402 kts 222°
2026-05-07 21:28 34.83133 -6.00177 35960 ft 402 kts 222°
2026-05-07 21:29 34.78797 -6.04472 35960 ft 402 kts 222°
2026-05-07 21:29 34.74458 -6.08768 35961 ft 401 kts 222°
2026-05-07 21:30 34.70148 -6.13034 35961 ft 400 kts 222°
2026-05-07 21:30 34.65849 -6.17279 35961 ft 399 kts 222°
2026-05-07 21:31 34.61536 -6.21538 35962 ft 400 kts 223°
2026-05-07 21:31 34.57240 -6.25766 35960 ft 399 kts 222°
2026-05-07 21:32 34.52668 -6.29678 35966 ft 403 kts 216°
2026-05-07 21:32 34.47753 -6.32955 35969 ft 406 kts 210°
2026-05-07 21:33 34.42529 -6.35562 35965 ft 409 kts 205°
2026-05-07 21:33 34.37068 -6.37576 35975 ft 410 kts 202°
2026-05-07 21:34 34.31587 -6.39517 35972 ft 411 kts 202°
2026-05-07 21:34 34.26081 -6.41458 35974 ft 411 kts 202°
2026-05-07 21:35 34.20587 -6.43385 35976 ft 411 kts 202°
2026-05-07 21:35 34.15140 -6.45295 35976 ft 410 kts 202°
2026-05-07 21:36 34.12367 -6.46265 35818 ft 412 kts 202°
2026-05-07 21:36 34.09650 -6.47217 35484 ft 410 kts 202°
2026-05-07 21:36 34.06929 -6.48166 34958 ft 406 kts 202°
2026-05-07 21:36 34.04195 -6.49135 34029 ft 408 kts 203°
2026-05-07 21:37 34.01555 -6.50306 33027 ft 411 kts 207°
2026-05-07 21:37 33.98960 -6.51770 32034 ft 413 kts 211°
2026-05-07 21:37 33.96489 -6.53486 31080 ft 413 kts 216°
2026-05-07 21:37 33.94145 -6.55448 30157 ft 414 kts 220°
2026-05-07 21:38 33.91907 -6.57686 29197 ft 415 kts 225°
2026-05-07 21:38 33.89843 -6.60046 28356 ft 415 kts 226°
2026-05-07 21:38 33.87760 -6.62468 27499 ft 416 kts 226°
2026-05-07 21:38 33.85704 -6.64870 26639 ft 417 kts 226°
2026-05-07 21:39 33.83610 -6.67319 25751 ft 419 kts 225°
2026-05-07 21:39 33.81548 -6.69731 24862 ft 421 kts 225°
2026-05-07 21:39 33.79423 -6.72215 23928 ft 423 kts 225°
2026-05-07 21:39 33.77320 -6.74675 22985 ft 425 kts 224°
2026-05-07 21:40 33.75234 -6.77109 22329 ft 419 kts 225°
2026-05-07 21:40 33.73170 -6.79518 21718 ft 414 kts 225°
2026-05-07 21:40 33.71104 -6.81924 21094 ft 410 kts 225°
2026-05-07 21:40 33.69087 -6.84274 20472 ft 406 kts 224°
2026-05-07 21:41 33.67033 -6.86596 19816 ft 403 kts 221°
2026-05-07 21:41 33.64776 -6.88566 19182 ft 401 kts 214°
2026-05-07 21:41 33.62354 -6.90121 18555 ft 399 kts 206°
2026-05-07 21:41 33.59743 -6.91316 17931 ft 398 kts 201°
2026-05-07 21:42 33.57162 -6.92359 17300 ft 396 kts 201°
2026-05-07 21:42 33.54554 -6.93393 16669 ft 393 kts 200°
2026-05-07 21:42 33.51955 -6.94420 16048 ft 390 kts 200°
2026-05-07 21:42 33.49412 -6.95424 15446 ft 387 kts 200°
2026-05-07 21:43 33.46860 -6.96430 14823 ft 383 kts 199°
2026-05-07 21:43 33.44355 -6.97421 14223 ft 380 kts 199°
2026-05-07 21:43 33.41832 -6.98415 13606 ft 377 kts 199°
2026-05-07 21:43 33.39359 -6.99387 12999 ft 374 kts 199°
2026-05-07 21:44 33.36904 -7.00351 12390 ft 372 kts 199°
2026-05-07 21:44 33.34483 -7.01303 11984 ft 363 kts 199°
2026-05-07 21:44 33.32104 -7.02239 11667 ft 353 kts 199°
2026-05-07 21:44 33.29801 -7.03146 11434 ft 341 kts 199°
2026-05-07 21:45 33.27578 -7.04021 11145 ft 331 kts 199°
2026-05-07 21:45 33.25444 -7.04860 10958 ft 319 kts 200°
2026-05-07 21:45 33.23377 -7.05671 10760 ft 309 kts 200°
2026-05-07 21:45 33.21352 -7.06468 10552 ft 299 kts 200°
2026-05-07 21:46 33.19513 -7.07451 10344 ft 288 kts 217°
2026-05-07 21:46 33.18225 -7.09241 10132 ft 279 kts 241°
2026-05-07 21:46 33.17667 -7.11379 10020 ft 270 kts 257°
2026-05-07 21:46 33.17349 -7.13535 9788 ft 264 kts 257°
2026-05-07 21:47 33.17024 -7.15705 9422 ft 263 kts 257°
2026-05-07 21:47 33.16700 -7.17828 9070 ft 263 kts 257°
2026-05-07 21:47 33.16368 -7.19989 8713 ft 262 kts 257°
2026-05-07 21:47 33.16039 -7.22108 8366 ft 261 kts 257°
2026-05-07 21:48 33.15707 -7.24235 8016 ft 261 kts 257°
2026-05-07 21:48 33.15378 -7.26350 7664 ft 260 kts 257°
2026-05-07 21:48 33.15047 -7.28463 7322 ft 259 kts 257°
2026-05-07 21:48 33.14717 -7.30574 6980 ft 258 kts 257°
2026-05-07 21:49 33.14387 -7.32681 6642 ft 258 kts 257°
2026-05-07 21:49 33.14061 -7.34765 6311 ft 257 kts 258°
2026-05-07 21:49 33.13735 -7.36839 5988 ft 256 kts 258°
2026-05-07 21:49 33.13404 -7.38930 5665 ft 255 kts 258°
2026-05-07 21:50 33.13079 -7.40987 5350 ft 254 kts 259°
2026-05-07 21:50 33.12750 -7.43066 5038 ft 253 kts 260°
2026-05-07 21:50 33.12427 -7.45102 4749 ft 251 kts 261°
2026-05-07 21:50 33.12110 -7.47144 4452 ft 250 kts 263°
2026-05-07 21:51 33.12194 -7.49187 4097 ft 247 kts 292°
2026-05-07 21:51 33.13125 -7.50835 3785 ft 241 kts 322°
2026-05-07 21:51 33.14577 -7.51742 3594 ft 230 kts 343°
2026-05-07 21:51 33.16119 -7.52250 3593 ft 231 kts 347°
2026-05-07 21:52 33.17677 -7.52708 3587 ft 226 kts 347°
2026-05-07 21:52 33.19158 -7.53173 3571 ft 214 kts 346°
2026-05-07 21:52 33.20607 -7.53656 3516 ft 214 kts 345°
2026-05-07 21:52 33.22041 -7.54149 3283 ft 213 kts 345°
2026-05-07 21:53 33.23454 -7.54640 3000 ft 211 kts 345°
2026-05-07 21:53 33.24877 -7.55133 2717 ft 211 kts 345°
2026-05-07 21:53 33.26254 -7.55610 2526 ft 197 kts 346°
2026-05-07 21:53 33.27543 -7.56055 2228 ft 187 kts 345°
2026-05-07 21:54 33.28758 -7.56474 1978 ft 173 kts 347°
2026-05-07 21:54 33.29887 -7.56863 1728 ft 159 kts 348°
2026-05-07 21:54 33.30917 -7.57217 1494 ft 145 kts 347°
2026-05-07 21:54 33.31909 -7.57556 1331 ft 144 kts 345°
2026-05-07 21:55 33.32886 -7.57896 1165 ft 144 kts 346°
2026-05-07 21:55 33.33870 -7.58239 968 ft 145 kts 346°
2026-05-07 21:55 33.34870 -7.58572 771 ft 144 kts 347°
2026-05-07 21:55 33.35812 -7.58882 675 ft 133 kts 347°
2026-05-07 21:56 33.36595 -7.59154 662 ft 93 kts 344°
2026-05-07 21:56 33.37060 -7.59314 662 ft 48 kts 347°
2026-05-07 21:56 33.37284 -7.59328 662 ft 23 kts 11°
2026-05-07 21:56 33.37413 -7.59294 662 ft 13 kts 13°
2026-05-07 21:57 33.37450 -7.59285 662 ft 0 kts 12°
2026-05-07 21:57 33.37457 -7.59283 662 ft 0 kts 12°
2026-05-07 21:57 33.37472 -7.59279 662 ft 5 kts 12°
2026-05-07 21:57 33.37529 -7.59265 662 ft 11 kts 11°
2026-05-07 21:58 33.37621 -7.59244 662 ft 14 kts 12°
2026-05-07 21:58 33.37717 -7.59220 662 ft 14 kts 15°
2026-05-07 21:58 33.37794 -7.59150 662 ft 13 kts 59°
2026-05-07 21:58 33.37831 -7.59039 662 ft 15 kts 72°
2026-05-07 21:59 33.37863 -7.58914 662 ft 15 kts 75°
2026-05-07 21:59 33.37893 -7.58788 662 ft 15 kts 73°
2026-05-07 21:59 33.37911 -7.58664 662 ft 14 kts 108°
2026-05-07 21:59 33.37852 -7.58562 662 ft 14 kts 129°
2026-05-07 22:00 33.37776 -7.58482 662 ft 14 kts 159°
2026-05-07 22:00 33.37678 -7.58447 662 ft 14 kts 168°
2026-05-07 22:00 33.37580 -7.58433 662 ft 11 kts 174°
2026-05-07 22:00 33.37555 -7.58385 662 ft 4 kts 76°
2026-05-07 22:01 33.37559 -7.58363 662 ft 0 kts 80°
2026-05-07 22:01 33.37560 -7.58357 662 ft 1 kts 81°
2026-05-07 22:01 33.37561 -7.58348 662 ft 0 kts 78°
2026-05-07 22:01 33.37563 -7.58341 662 ft 1 kts 78°